Wind_Speed
30 30 29 29 29 29 29 29 30 30 30 31 31 32 33 34 34 36 38 39 40 41 42 44 46 47 47 47 48 49 50 51 53 54 55 57 58 58 59 59 61 63 64 66 68 71 73 75 76 77 77 77 77 76 76 76 76 76 76 77 78 79 80 82 83 83 82 81 81 80 78 78 76 75 75 76 77 77 78 78 79 79 78 77 77 77
29 29 29 29 29 30 30 31 30 30 30 31 32 32 33 35 36 37 39 40 42 44 45 47 49 49 49 50 51 51 51 53 55 56 58 60 62 63 65 66 67 68 70 71 73 74 75 76 76 76 76 76 76 76 75 76 76 76 76 77 78 79 80 82 84 84 84 84 85 84 83 82 80 79 79 79 79 80 80 80 81 82 81 81 80 80
28 28 29 29 30 30 31 31 31 31 31 31 32 33 35 37 39 39 40 43 46 48 49 49 51 51 52 53 53 53 54 56 58 60 61 63 64 66 68 69 69 70 71 73 75 76 76 76 76 76 76 76 76 77 76 76 77 77 77 78 79 79 79 81 84 85 85 85 87 88 89 87 86 85 85 84 84 84 84 84 84 84 84 85 85 84
28 29 29 30 30 30 30 30 31 32 32 33 34 36 38 41 43 43 43 46 48 50 51 51 53 54 54 55 55 56 58 60 61 63 64 65 67 68 69 69 69 70 72 75 77 79 79 79 79 78 78 78 78 79 78 77 78 78 78 78 79 80 80 81 84 86 87 88 89 92 92 92 91 91 92 91 90 89 89 89 88 88 88 89 89 89
29 29 29 30 30 30 30 30 32 33 34 36 37 39 41 43 45 46 48 48 48 50 52 54 55 55 57 58 58 59 61 61 62 63 65 68 69 70 70 70 71 72 75 79 81 82 82 81 80 80 80 81 80 81 80 79 78 77 78 79 80 81 82 84 87 89 91 92 93 95 96 96 96 96 97 96 96 95 94 94 93 92 92 92 93 92
29 30 30 30 30 31 31 32 34 35 37 38 40 42 44 44 45 47 49 50 51 52 54 57 58 57 59 61 60 62 63 63 64 66 69 71 72 72 72 72 73 75 78 81 83 83 83 82 81 81 82 83 83 81 81 80 79 78 79 80 82 84 86 87 90 92 94 95 96 97 98 98 99 99 99 99 99 99 99 98 98 96 95 95 96 95
30 31 31 31 32 33 33 34 35 36 38 39 41 42 43 45 46 48 50 52 54 55 56 58 60 61 61 61 61 64 65 65 67 69 71 73 74 74 74 74 75 77 80 82 83 84 83 83 83 84 85 85 84 82 80 80 80 80 81 83 84 86 87 88 88 89 90 90 90 91 92 93 94 94 94 94 95 96 97 98 99 99 97 97 97 98
31 31 31 32 33 33 34 35 36 37 39 40 42 44 45 46 48 50 51 53 55 56 58 60 62 62 64 63 62 64 66 68 70 71 73 75 75 75 75 76 77 79 81 82 84 85 85 84 84 85 85 83 82 81 81 82 83 83 84 84 85 85 85 84 83 82 82 81 80 81 81 82 83 83 83 83 84 85 87 89 92 94 95 95 96 97
30 31 31 32 33 34 35 36 38 40 41 42 44 46 47 48 50 51 52 53 55 57 59 61 61 62 64 63 63 65 67 69 71 72 74 74 73 74 75 77 78 80 82 84 86 87 86 85 84 84 84 82 81 82 83 85 85 85 85 84 83 81 79 77 75 73 72 71 70 70 70 70 70 69 69 69 70 71 72 75 78 81 84 86 89 92
31 32 33 34 35 36 37 39 41 43 44 45 47 48 49 50 51 52 53 54 56 57 59 60 60 62 65 64 64 66 67 68 70 70 71 71 73 75 77 80 81 83 84 85 86 87 87 86 85 85 84 84 83 84 86 87 87 86 84 82 79 75 71 67 64 62 60 59 58 58 58 57 56 54 54 55 55 56 57 58 61 64 67 70 74 80
32 34 35 35 37 38 40 42 43 45 47 48 49 50 50 51 52 52 53 55 56 56 58 59 60 63 66 65 65 67 68 68 69 69 70 73 75 78 81 84 85 85 86 86 86 86 86 86 86 86 85 86 86 86 87 87 86 84 81 77 73 67 61 55 51 49 48 47 47 49 48 47 46 45 46 46 46 47 48 49 50 52 53 55 58 63
33 35 36 37 39 40 42 44 45 47 49 50 51 52 51 50 51 52 53 54 56 57 58 59 60 63 65 66 67 69 69 70 71 73 74 76 78 80 83 84 84 85 86 86 86 87 87 87 87 87 87 88 88 88 88 86 83 80 75 71 66 58 50 44 41 41 41 40 41 42 42 41 42 42 43 43 44 46 47 48 49 49 49 48 49 51
35 36 38 40 40 42 44 45 46 48 50 51 52 53 54 53 52 53 54 54 55 56 58 60 62 63 63 65 68 70 71 72 74 76 77 79 80 81 81 82 83 85 86 86 87 88 88 88 88 89 89 89 89 88 86 83 79 75 69 63 57 49 43 39 38 38 38 38 38 38 37 37 38 39 41 43 44 46 47 48 49 49 49 48 47 47
38 38 39 41 42 43 45 46 48 49 50 52 53 54 56 57 58 58 58 59 58 57 58 60 64 65 65 65 68 71 72 73 75 77 78 78 78 79 81 82 84 85 86 88 88 88 88 88 88 90 90 89 89 87 83 79 75 70 62 55 48 43 41 40 39 38 37 36 36 35 34 34 35 37 39 41 43 44 45 46 46 47 47 47 47 46
39 40 41 43 44 44 45 47 49 50 51 53 54 55 57 59 60 61 62 63 64 62 61 62 65 67 67 67 70 71 72 73 75 76 76 77 78 80 81 83 85 87 87 88 89 89 88 88 88 89 90 89 87 83 79 75 70 63 55 47 43 42 42 42 41 39 36 36 35 34 33 33 33 35 37 38 39 40 41 42 42 43 43 43 43 43
40 41 42 43 44 45 46 47 49 50 52 53 53 55 58 59 60 61 62 64 66 66 65 64 65 67 68 68 71 72 72 73 74 75 77 79 80 81 82 84 87 88 88 88 89 89 89 89 89 89 89 87 83 79 75 70 64 55 48 43 41 43 43 42 41 39 37 35 34 33 32 32 32 33 35 36 36 37 38 39 39 40 40 40 40 40
40 40 42 43 44 45 46 48 49 50 51 52 54 55 58 59 61 62 63 63 65 68 67 65 67 69 68 68 71 71 72 73 76 78 79 80 82 83 84 86 87 88 90 90 90 90 91 91 91 89 87 84 80 75 71 65 58 49 43 42 41 42 43 42 41 39 37 35 33 32 32 32 32 32 33 34 34 35 36 37 38 38 38 39 39 38
41 41 41 42 44 45 46 48 49 50 51 53 55 56 57 59 61 64 65 65 67 69 68 66 69 72 69 68 71 71 73 77 79 80 80 81 83 84 85 86 88 89 90 91 91 91 92 92 91 88 85 80 76 72 66 60 51 43 40 42 43 42 41 41 40 38 37 35 33 32 32 32 32 32 33 33 34 34 35 36 37 37 38 38 38 38
42 42 42 42 44 45 47 49 50 51 52 54 55 56 58 60 62 63 66 68 69 71 72 69 70 72 68 67 70 73 77 80 80 81 82 83 84 86 88 89 89 91 91 92 92 92 92 91 88 87 83 77 72 68 62 53 44 40 39 41 43 42 41 40 39 38 36 34 33 32 32 32 32 32 32 33 33 34 35 36 36 37 37 37 38 38
43 44 44 43 45 47 48 50 51 52 54 55 56 57 58 61 64 64 65 67 69 72 74 73 73 72 67 67 73 77 79 79 80 83 84 84 85 87 89 90 91 92 93 92 92 92 92 89 86 84 80 74 69 64 56 46 38 37 39 41 41 41 40 39 38 37 36 34 32 31 31 31 31 31 32 33 33 34 35 36 36 36 37 37 38 38
43 45 45 44 45 47 49 50 52 53 55 56 58 59 59 61 64 65 65 66 68 71 73 75 78 74 68 70 76 77 78 79 82 84 85 85 87 88 90 91 92 93 92 91 92 92 90 87 83 80 76 71 66 59 49 39 35 35 38 40 40 40 39 38 36 35 35 33 31 31 30 29 29 30 30 32 33 34 35 35 36 37 37 38 38 38
44 45 46 46 46 47 48 50 52 53 55 57 59 60 61 62 64 66 66 66 68 70 70 74 79 76 71 73 76 75 78 82 83 84 85 86 87 89 90 91 92 92 91 91 92 90 88 83 80 77 73 68 63 53 42 34 33 35 37 38 39 39 38 36 35 34 33 32 30 29 28 28 28 28 29 31 32 34 34 35 36 37 37 38 39 39
46 47 48 48 48 49 50 50 53 54 56 57 59 60 61 62 64 67 67 67 69 71 70 74 78 76 72 73 75 77 81 82 83 84 86 86 87 89 90 92 92 92 92 92 91 88 85 81 77 73 69 65 59 48 36 31 32 34 36 37 38 38 36 34 33 32 31 30 28 28 27 27 27 28 29 29 31 32 34 34 35 36 37 38 38 39
48 48 50 50 50 51 51 52 54 56 57 58 60 61 62 63 64 66 67 69 71 73 73 76 80 78 74 74 77 80 81 82 83 85 86 87 89 90 91 92 93 92 92 92 90 86 82 78 74 70 66 62 54 43 33 31 32 34 36 36 36 36 35 32 30 29 28 27 26 26 26 26 26 26 27 28 29 30 32 33 33 35 36 36 37 37
49 50 51 52 52 52 53 53 54 57 58 59 61 63 63 63 65 67 68 68 71 74 75 78 81 81 77 77 80 81 81 82 84 85 86 88 91 92 93 94 94 93 92 92 90 85 80 74 70 66 63 59 51 40 32 31 33 35 35 34 34 34 33 30 28 27 26 25 25 25 25 24 24 24 25 26 27 28 29 31 32 33 33 33 34 35
51 52 52 53 54 55 56 56 57 58 59 60 61 63 65 65 66 68 68 69 72 75 75 76 80 82 79 78 80 81 82 84 84 85 87 90 92 93 94 95 95 93 92 91 88 83 76 70 66 62 58 53 46 38 32 32 34 35 34 32 31 32 31 29 26 26 26 25 25 24 25 24 24 24 24 25 26 27 27 28 29 29 30 30 31 32
53 53 54 54 54 54 56 57 58 60 60 60 61 63 65 66 66 68 69 70 73 76 76 75 79 83 82 81 82 82 83 85 86 87 89 91 93 94 96 96 94 94 93 90 85 79 72 67 62 57 53 47 40 35 33 33 35 35 33 31 29 29 29 27 25 25 26 26 25 25 25 25 25 25 25 25 26 26 26 27 27 27 28 28 29 29
55 55 55 55 54 54 56 57 58 59 60 61 61 63 65 66 66 68 70 70 73 77 77 76 78 82 83 82 83 84 85 86 87 89 91 92 94 96 97 95 94 94 93 88 83 77 71 65 60 55 49 42 36 33 33 34 35 34 32 29 27 27 27 26 25 25 25 26 26 25 25 26 26 26 26 26 26 26 26 26 26 27 27 27 28 29
56 57 57 57 55 55 57 58 58 60 61 62 63 63 65 67 68 69 69 70 73 77 79 79 80 81 82 83 84 84 85 87 89 90 91 92 95 97 96 95 95 94 91 86 81 75 70 64 59 54 47 40 34 32 33 34 35 32 29 27 26 26 26 25 25 25 25 25 26 26 27 27 28 28 28 27 27 27 26 26 26 26 26 27 28 29
59 59 59 59 57 55 57 59 59 61 63 63 63 64 65 68 69 70 70 71 74 77 80 81 82 81 81 82 83 83 85 87 88 90 91 93 95 97 96 95 95 93 89 85 80 74 68 62 57 52 45 38 33 32 33 35 34 31 29 27 26 25 25 25 25 25 25 25 26 27 28 28 29 29 29 28 28 27 27 26 25 25 25 26 27 28
61 61 61 62 61 57 58 61 61 63 64 64 64 65 66 68 70 71 71 71 73 77 79 80 81 81 81 82 83 84 86 87 88 90 92 94 95 96 96 95 94 91 86 82 77 73 67 60 54 49 43 35 31 31 33 34 33 31 30 28 26 26 26 25 25 24 24 24 25 25 27 28 29 29 29 28 28 27 27 26 24 24 24 24 25 26
63 63 63 64 64 61 60 62 63 63 65 65 65 65 67 68 69 71 73 72 74 79 81 81 82 83 83 84 85 85 86 87 88 91 93 95 96 96 96 95 93 88 83 79 75 72 67 60 54 48 41 34 30 30 33 33 31 30 30 28 27 26 26 25 24 24 24 24 24 24 25 26 27 27 27 27 27 26 26 24 23 23 23 23 22 21
64 65 64 65 66 64 62 65 65 65 67 68 66 66 68 69 70 72 72 71 73 78 81 81 82 82 83 84 86 86 86 87 89 91 94 96 97 96 95 94 90 86 81 77 74 70 66 61 54 47 41 33 30 30 32 32 31 30 29 28 27 26 25 24 24 24 24 24 24 24 25 25 25 25 25 25 25 24 23 22 21 21 21 19 17 15
65 66 65 66 67 66 65 67 68 67 69 69 67 68 70 71 71 73 73 72 72 76 78 79 80 81 83 84 85 87 88 89 90 91 94 96 95 95 95 92 88 84 80 76 72 68 64 59 53 46 39 32 29 30 32 32 31 30 28 27 26 26 25 25 24 24 25 25 25 25 25 26 25 24 24 24 23 22 21 20 19 19 18 15 12 10
66 67 67 67 68 69 68 70 70 69 70 70 69 69 72 72 72 74 74 73 73 77 78 79 81 82 83 84 85 87 89 90 90 91 93 94 94 94 94 90 86 82 78 74 71 67 63 58 52 45 37 31 29 30 32 32 31 30 28 26 25 25 26 26 26 25 25 25 25 25 25 26 25 24 23 23 21 20 19 18 17 16 13 11 10 10
67 68 69 69 69 70 71 71 71 71 71 71 71 72 73 73 73 76 77 74 74 78 81 81 83 83 84 86 87 89 90 91 90 92 93 93 93 93 92 88 83 79 75 72 69 66 63 57 51 44 36 30 29 31 32 32 31 29 28 26 26 26 26 27 27 26 26 25 25 25 25 25 25 23 23 22 20 18 17 16 14 12 10 10 10 10
68 68 69 70 70 70 72 72 72 73 73 73 73 74 74 74 74 78 81 80 77 80 83 84 85 85 86 88 89 90 92 92 92 93 93 94 93 92 89 84 80 77 73 69 66 64 62 58 51 44 36 29 28 30 32 31 30 29 27 27 27 27 27 27 27 26 26 26 26 26 26 26 25 23 22 21 18 16 15 13 11 10 10 11 10 9
70 70 70 71 70 71 73 74 74 75 74 74 74 75 75 75 75 77 81 82 81 82 84 85 85 86 87 89 91 92 94 95 96 95 95 95 94 91 87 82 78 74 71 68 64 61 59 56 50 43 35 28 27 29 31 30 29 28 27 27 28 28 27 26 26 26 26 27 27 27 26 26 24 22 21 19 16 14 13 11 10 10 11 10 9 9
72 72 72 71 71 72 73 74 75 75 75 74 74 75 76 76 76 78 81 82 82 84 84 85 86 87 89 91 93 94 96 98 99 98 96 96 93 89 85 81 77 73 69 65 62 59 57 54 49 42 34 28 26 28 29 28 27 27 27 27 28 28 27 26 27 27 28 28 28 27 26 25 23 20 19 17 14 11 11 11 11 11 10 9 9 9
74 74 74 73 73 73 74 75 75 75 74 74 75 76 76 76 77 80 82 83 83 85 85 86 88 88 90 92 93 94 96 98 99 98 96 95 91 85 82 79 76 72 68 64 60 57 55 53 47 39 31 26 26 27 27 26 26 26 27 27 27 27 27 27 28 28 28 28 27 25 23 21 19 17 16 14 11 10 11 12 12 11 10 9 8 9
76 77 77 76 75 75 74 76 77 75 74 75 77 77 77 77 78 80 83 84 85 86 87 87 88 88 90 92 93 94 95 96 97 96 95 92 87 83 79 77 74 71 67 64 59 55 53 51 45 37 29 25 25 27 26 25 25 26 27 27 27 27 26 27 28 28 27 25 23 21 18 15 14 13 13 11 9 10 13 13 12 10 9 7 6 7
77 78 78 78 78 77 76 76 78 77 75 75 77 78 78 79 80 82 83 85 86 87 89 89 89 89 91 92 93 94 95 95 96 95 93 89 84 80 77 75 72 69 66 63 58 54 52 49 43 34 27 24 24 25 25 24 24 26 26 26 27 26 26 27 28 26 23 21 18 15 11 9 9 10 10 9 9 12 14 13 11 9 7 5 4 5
78 80 80 79 79 78 77 77 78 78 76 75 77 79 80 81 82 84 86 87 87 88 90 90 90 90 92 93 94 95 95 96 95 93 90 85 82 78 75 73 71 68 65 62 58 54 51 49 43 32 24 22 23 24 24 23 23 25 26 26 26 25 26 26 25 22 19 16 13 10 7 5 5 7 8 7 10 14 14 12 10 8 6 5 4 5
79 80 81 80 80 79 77 77 78 77 75 75 77 79 80 81 83 85 87 88 89 89 90 91 91 91 92 94 95 95 96 96 94 90 87 83 80 76 73 71 69 67 65 62 58 53 50 49 43 31 22 21 22 22 22 21 22 24 25 25 24 24 25 25 23 19 16 13 11 9 7 6 6 6 7 8 12 15 14 11 9 7 6 5 5 5
80 82 82 81 81 81 79 79 79 77 75 76 78 79 80 81 83 85 87 89 90 90 91 91 92 92 93 94 95 96 96 94 91 87 84 81 78 75 72 70 68 67 65 61 58 53 49 48 43 31 21 20 21 21 21 20 20 22 24 24 23 23 23 23 20 17 14 12 10 9 8 7 6 7 6 9 15 16 13 10 8 7 4 4 5 6
82 83 83 82 83 83 81 81 81 79 76 77 79 80 81 83 85 86 89 91 91 92 91 91 92 93 94 95 96 96 94 91 88 85 82 79 76 74 72 69 67 66 64 61 58 53 48 47 43 31 20 18 19 20 19 18 19 21 22 22 22 21 22 20 18 15 13 11 9 9 8 8 8 7 6 11 17 16 13 10 8 6 3 2 5 6
83 84 85 84 84 84 84 83 83 80 77 78 81 81 82 85 87 88 91 92 93 93 93 92 93 93 94 95 95 94 92 88 85 83 80 77 75 73 71 70 68 67 65 61 58 53 49 47 43 31 20 17 18 18 17 17 17 19 21 21 21 20 20 18 16 14 13 10 9 9 10 9 8 7 6 13 18 16 12 10 8 5 2 2 4 5
85 85 87 87 86 86 86 85 85 82 78 78 81 83 84 87 90 91 92 93 94 95 95 94 94 94 94 94 93 92 89 86 83 81 78 75 73 72 71 69 68 66 64 61 58 53 49 46 42 32 20 16 17 17 16 15 16 18 19 20 19 18 18 17 15 14 13 11 10 10 10 9 8 7 7 14 19 17 13 11 8 5 2 1 3 4
86 86 88 89 88 88 87 87 86 85 82 80 82 84 86 89 92 93 95 96 97 97 97 96 95 95 94 93 91 89 87 84 82 79 76 74 73 72 71 69 67 65 63 59 56 53 48 45 41 31 20 16 16 16 15 15 15 17 18 19 18 17 17 16 14 13 13 12 11 11 11 9 8 7 7 14 19 18 14 11 9 6 2 2 3 4
86 87 89 90 90 89 89 88 87 88 87 84 85 86 88 91 95 96 97 99 100 99 98 98 97 96 94 91 88 86 85 82 80 78 76 74 73 72 71 69 67 65 62 58 55 51 46 43 39 30 19 15 15 16 15 15 14 16 18 18 17 16 16 15 14 12 12 12 11 11 11 8 7 6 8 15 20 18 15 13 10 6 2 2 4 5
87 88 89 91 91 90 89 88 86 87 88 87 87 89 91 93 96 99 100 102 102 101 99 99 98 97 94 91 87 85 84 83 81 79 77 75 73 72 70 68 66 64 61 57 54 49 44 41 37 28 18 14 14 15 15 14 14 15 17 18 17 15 14 15 14 12 11 11 11 12 11 7 5 6 8 14 19 18 15 13 10 7 4 3 4 6
Wind_Direction
334 332 333 334 334 333 331 328 327 328 327 326 327 328 326 325 326 325 324 323 322 321 321 321 322 323 320 319 318 317 315 314 314 314 314 315 315 316 315 314 313 313 313 313 313 313 313 312 311 310 308 306 304 302 300 298 296 294 291 288 285 282 280 278 277 275 274 272 270 268 267 265 264 264 263 262 262 261 261 261 260 259 258 258 258 258
333 334 335 335 334 333 332 331 330 330 329 329 328 327 326 326 326 326 324 323 322 323 324 323 323 322 319 319 318 317 316 316 317 317 318 319 318 317 316 315 315 315 315 315 314 314 313 312 310 308 307 305 303 302 300 298 296 294 291 288 285 282 280 279 277 275 274 273 272 270 267 266 264 263 263 263 263 262 261 261 260 260 258 257 257 257
335 337 337 337 337 335 334 334 332 330 330 329 327 326 326 325 325 325 325 325 324 324 323 322 322 321 320 319 319 319 319 320 320 321 320 319 317 316 316 316 316 316 315 315 314 313 311 310 308 307 306 305 304 303 301 299 296 294 291 288 286 283 281 280 278 277 275 274 273 271 269 267 266 264 263 262 262 263 262 261 260 260 259 258 257 255
340 341 341 340 339 338 336 335 332 331 330 329 327 327 326 326 326 325 325 325 325 324 322 322 322 322 321 320 321 323 322 322 322 320 319 317 316 317 317 317 316 315 314 313 312 311 311 311 310 310 309 308 306 305 303 300 297 294 292 289 287 285 283 281 280 279 277 275 274 273 271 269 267 266 265 263 262 262 262 262 260 260 259 259 258 256
346 346 345 343 342 340 338 335 333 332 331 329 328 327 326 326 326 326 325 324 324 323 322 322 322 322 322 322 324 324 323 322 320 318 317 317 317 317 317 316 315 314 313 313 313 313 313 313 313 313 311 310 308 306 304 301 298 295 292 290 288 286 285 283 282 281 279 277 276 274 273 271 269 268 267 266 264 263 263 262 261 260 259 258 258 257
350 349 347 345 343 341 338 336 334 333 330 328 327 326 326 325 325 325 325 324 324 324 323 322 322 323 324 324 325 323 322 321 319 318 319 318 318 317 317 316 315 314 314 315 315 315 315 315 315 313 312 311 309 307 305 302 300 297 295 293 292 290 288 286 284 282 281 279 277 276 274 272 271 269 267 267 266 264 263 262 261 260 259 258 257 257
351 350 347 344 342 340 338 335 333 330 327 326 325 325 324 324 325 325 325 326 325 325 324 323 324 325 324 325 326 323 321 321 320 321 320 318 318 318 317 315 315 316 317 317 316 316 316 316 315 314 313 312 311 309 307 305 303 301 300 298 296 294 292 289 287 284 282 279 277 275 274 272 271 269 268 267 266 264 263 261 260 259 258 257 256 255
350 348 344 342 341 338 335 332 330 327 325 325 324 324 324 324 325 325 326 326 325 325 325 325 327 326 324 326 325 322 322 322 322 321 319 318 319 318 316 316 317 319 318 317 316 315 316 317 316 314 313 312 311 309 308 306 305 304 302 300 298 296 294 291 288 285 283 280 278 275 273 272 271 270 268 267 266 265 263 261 260 259 258 257 256 254
349 346 342 340 339 335 332 330 327 326 326 325 324 324 325 324 325 326 326 326 326 327 327 328 329 326 324 325 323 323 324 323 322 321 319 320 319 317 316 317 319 319 317 317 316 316 318 318 316 314 313 312 311 310 310 309 307 306 304 302 300 297 294 291 288 285 282 280 278 276 274 273 271 271 270 268 266 265 264 263 262 260 258 257 256 255
347 343 339 337 335 333 330 329 327 327 326 325 324 325 325 325 326 326 326 326 326 327 327 328 328 324 323 324 324 325 326 324 323 321 319 318 317 317 317 318 318 317 316 317 318 319 319 318 316 315 314 313 313 313 312 311 310 308 307 304 301 298 295 291 287 284 282 280 278 277 276 275 274 272 270 268 266 265 264 264 264 263 261 259 257 256
342 338 335 334 334 331 330 329 328 327 326 326 326 326 326 327 327 326 326 326 325 326 326 326 325 322 323 325 326 327 325 323 322 319 316 316 316 317 318 317 318 319 319 320 320 320 319 318 317 315 315 314 314 315 314 312 311 310 308 305 302 299 295 291 288 284 282 279 278 278 277 276 274 271 268 266 265 265 264 264 265 265 265 263 261 258
337 336 334 334 333 332 331 330 329 328 328 328 327 327 327 326 325 325 326 326 325 325 324 324 322 322 324 326 326 324 322 320 319 317 316 317 317 318 319 320 322 322 322 321 320 320 320 318 317 316 316 316 316 316 315 314 312 311 309 305 303 300 297 292 289 286 283 280 279 279 277 276 274 272 269 268 266 265 265 265 265 266 266 266 264 263
337 336 335 334 334 333 332 331 330 330 329 328 328 328 326 326 326 327 326 325 324 324 323 323 322 322 324 325 323 321 320 319 318 317 318 319 320 321 322 323 323 322 321 320 320 321 321 320 319 318 318 318 318 318 317 315 313 312 309 305 303 301 299 295 292 289 287 284 282 280 278 277 275 273 271 269 268 267 266 266 266 266 266 266 266 265
337 337 336 335 335 334 333 332 331 331 329 328 329 328 327 328 328 328 327 325 324 324 325 324 324 323 324 325 322 321 320 319 319 320 321 321 322 323 323 323 322 321 320 321 321 322 321 321 320 320 320 320 319 319 318 316 314 312 308 305 303 302 300 299 297 293 291 288 287 284 282 279 275 272 270 269 268 268 267 267 267 267 267 266 266 266
337 338 338 337 336 335 334 332 331 331 330 330 329 329 329 330 329 327 327 325 324 325 327 327 326 324 325 326 323 321 320 320 320 321 321 321 322 322 322 322 322 321 321 322 323 323 322 322 321 321 320 320 320 319 318 316 314 311 307 304 304 303 302 300 298 296 294 292 290 288 285 281 276 273 270 268 268 268 268 268 267 267 267 266 265 265
338 338 338 337 335 334 333 332 331 332 330 329 329 330 330 329 327 326 326 326 325 325 326 328 325 324 326 326 322 321 321 321 321 321 321 322 323 323 323 323 323 322 323 324 324 324 324 323 322 322 321 321 320 319 318 316 313 309 305 304 304 303 302 301 299 297 296 295 292 290 287 284 280 276 273 270 268 267 267 267 266 266 266 266 266 265
339 338 338 336 335 334 333 332 331 331 330 329 330 331 329 328 327 326 326 326 325 324 325 326 324 324 327 326 323 323 323 322 322 323 324 324 324 324 324 324 324 324 325 326 325 325 325 325 324 323 322 321 320 319 318 316 312 307 305 306 305 304 302 301 299 298 297 296 294 292 290 287 284 280 276 272 269 267 266 266 266 265 265 266 266 265
339 339 339 336 335 334 332 332 331 331 331 330 331 330 328 327 327 327 326 326 325 323 323 326 324 325 330 328 325 325 323 323 324 324 324 325 324 325 325 325 325 326 327 327 326 326 326 326 325 323 323 322 320 319 318 316 310 305 304 306 306 306 303 301 300 299 298 297 294 292 290 288 285 281 277 273 270 268 266 265 265 265 266 266 266 265
339 340 340 337 334 334 333 332 331 332 333 331 330 330 329 328 327 327 327 327 326 323 323 326 326 327 332 330 326 325 324 324 325 325 325 326 326 326 326 326 327 327 327 327 327 327 327 326 325 323 323 323 321 319 318 314 307 303 304 305 306 306 304 302 300 300 300 298 295 292 289 287 285 281 278 274 271 269 268 267 266 266 266 266 265 265
339 340 341 338 334 333 333 332 331 332 333 331 330 331 330 329 328 328 328 326 325 323 324 325 327 331 333 330 326 326 326 326 327 327 328 328 327 327 327 328 328 328 328 328 328 328 327 326 325 323 323 322 320 319 317 312 305 302 304 306 307 306 303 300 299 298 299 299 297 293 289 286 284 281 278 275 272 271 269 268 268 267 267 267 266 265
340 339 341 340 336 334 333 332 332 332 332 331 331 331 331 329 328 327 327 326 325 324 325 324 326 333 335 330 328 328 327 328 328 328 328 327 327 328 328 328 329 329 329 329 329 328 328 327 325 323 322 322 320 319 316 309 303 303 306 308 309 306 302 299 297 296 296 298 298 295 290 287 284 281 278 276 273 271 270 269 268 268 267 267 267 266
341 340 340 340 338 335 334 333 332 332 332 332 332 332 331 329 327 325 326 327 325 325 325 323 325 333 335 331 330 329 327 328 327 327 327 327 328 328 328 329 329 329 329 329 329 329 328 327 324 323 322 321 321 319 314 306 303 305 308 309 309 306 302 299 296 294 295 296 297 294 291 288 286 284 281 278 275 273 271 269 268 267 267 267 267 266
342 341 341 340 339 337 336 335 333 332 334 335 333 332 331 329 327 325 326 328 326 324 325 323 324 330 334 331 328 327 326 327 327 326 327 327 328 328 328 329 329 329 329 329 330 329 328 327 325 323 322 321 321 319 313 306 305 308 311 311 307 304 301 298 295 294 294 295 294 292 290 288 286 285 282 279 276 273 271 269 267 266 265 265 265 266
342 342 342 342 341 339 338 336 334 334 335 335 334 332 331 329 327 326 327 327 326 325 325 324 324 329 332 329 327 326 326 326 326 327 327 328 328 328 329 330 330 330 330 330 330 330 329 328 326 324 323 321 320 319 312 307 308 311 312 312 308 303 300 297 294 294 295 294 292 289 288 286 283 282 281 278 275 272 270 270 268 266 265 265 266 266
343 342 341 341 341 340 339 338 336 335 336 334 333 332 331 330 328 327 327 326 326 326 326 326 325 327 330 328 326 327 326 327 327 328 328 329 329 330 331 331 331 331 331 331 331 331 330 329 328 325 323 321 319 316 312 309 310 312 313 312 308 302 298 296 295 295 295 292 290 289 288 286 286 285 284 281 277 273 270 269 269 269 269 268 267 266
345 343 341 341 340 338 338 338 336 335 336 335 333 331 331 331 329 327 326 327 327 326 326 326 324 325 329 328 327 327 326 327 328 329 330 330 330 331 331 331 331 331 331 331 331 331 331 330 328 325 323 320 316 313 311 310 311 313 314 313 308 301 297 296 297 297 296 292 289 289 289 289 290 290 289 287 283 278 274 271 271 271 270 268 267 266
346 345 343 342 341 338 337 338 336 335 336 335 333 332 332 332 329 326 328 329 327 325 326 326 324 325 328 329 328 328 328 328 330 330 331 331 331 331 332 332 332 331 331 332 332 332 332 331 329 326 323 319 314 310 310 311 313 315 316 314 309 301 297 296 297 297 295 292 290 289 290 290 290 290 290 289 287 284 280 276 273 271 269 268 268 268
347 346 344 343 343 339 337 338 337 335 335 335 334 333 333 332 330 328 329 329 327 324 325 327 326 326 329 329 329 330 329 330 331 331 331 331 331 332 332 332 332 332 332 333 333 333 333 332 331 328 324 318 312 309 310 312 314 317 317 314 309 302 297 296 297 295 293 291 290 289 289 289 288 288 288 287 286 285 282 279 274 272 270 270 269 269
348 347 345 345 345 341 338 339 337 335 336 336 335 334 333 332 332 331 330 329 327 325 326 327 328 329 329 330 330 330 330 331 331 331 331 332 332 332 332 332 332 333 333 333 334 335 335 333 332 329 325 318 312 310 311 314 316 319 319 316 312 305 299 297 297 295 293 292 290 289 288 287 287 287 286 286 285 283 282 279 275 272 271 271 271 271
348 348 346 345 347 344 339 339 339 337 337 338 337 335 334 334 333 331 330 330 329 327 327 328 329 330 329 329 329 330 331 331 332 332 332 332 332 332 332 332 333 334 334 334 334 335 335 334 332 329 325 318 311 311 313 316 319 321 321 319 315 309 304 302 301 298 295 292 290 288 287 286 286 286 286 286 285 284 282 280 277 274 272 272 273 274
348 349 347 345 348 346 341 340 341 338 338 339 337 336 335 335 334 332 331 332 330 328 328 329 329 329 329 329 330 331 332 332 332 332 331 331 332 332 332 334 335 335 335 335 334 335 335 334 333 330 325 317 312 312 315 318 321 324 324 320 316 313 309 307 305 301 297 293 289 287 285 284 284 284 284 285 285 285 284 281 279 276 274 275 276 277
349 349 348 346 347 348 342 341 342 339 339 340 339 337 336 335 335 333 333 334 332 328 329 330 329 330 330 330 331 332 332 332 332 331 331 332 333 333 334 335 336 336 336 336 335 335 335 334 333 331 325 317 313 314 317 320 324 325 324 320 317 315 312 310 308 303 298 294 290 287 285 283 283 284 285 286 286 286 284 282 279 278 278 277 277 275
350 349 348 346 346 347 344 342 342 340 339 341 341 338 337 336 336 335 334 335 333 329 329 330 330 330 330 330 330 331 332 333 333 332 332 333 334 335 336 336 336 337 336 336 335 335 334 334 333 331 325 318 314 316 319 323 325 326 324 320 318 316 315 313 310 306 301 296 292 289 287 286 286 286 287 287 287 286 284 282 281 279 277 273 270 266
350 349 349 346 346 347 345 343 344 342 340 342 341 339 337 337 337 335 336 336 333 329 329 329 329 330 330 330 331 331 332 333 334 334 333 334 335 336 336 336 336 336 336 336 336 336 335 334 332 330 325 317 314 317 321 324 326 326 324 320 318 317 316 315 313 309 305 301 296 292 289 287 287 287 288 288 287 285 283 283 281 277 271 265 256 247
350 349 349 347 346 346 345 344 344 343 342 342 341 339 339 339 337 336 337 337 333 329 330 330 330 331 331 331 332 332 332 334 334 334 334 334 335 335 336 336 336 337 337 336 336 336 335 333 331 329 324 317 315 318 322 325 326 325 323 321 318 317 316 314 312 309 306 302 298 294 291 288 287 287 288 288 287 283 283 282 278 271 263 250 240 241
350 349 349 348 346 346 345 345 345 343 342 342 342 341 340 340 338 335 337 339 335 331 331 332 332 333 332 332 332 332 332 333 334 334 334 335 335 336 336 337 338 338 337 337 336 336 336 334 332 329 325 318 317 320 323 325 325 324 323 321 319 318 316 314 312 309 306 303 300 296 293 289 288 287 287 287 284 281 281 278 269 259 244 233 238 252
350 349 349 348 347 346 345 346 345 344 343 343 342 342 341 340 338 335 336 339 337 333 333 333 334 334 333 332 332 332 332 333 334 335 335 336 336 337 337 338 339 338 338 337 337 336 336 335 332 328 324 317 316 320 322 323 323 323 323 321 319 319 317 314 312 310 309 306 302 299 295 292 290 289 287 285 280 278 276 266 250 235 227 231 247 263
350 350 349 348 347 346 345 346 346 345 345 344 343 342 341 340 338 335 336 338 338 335 334 334 333 333 333 332 332 333 333 333 335 336 337 337 337 337 338 339 339 339 338 338 337 337 337 335 331 327 321 315 316 319 320 320 322 323 323 321 319 319 318 316 314 312 311 307 303 299 296 293 291 289 285 280 275 272 265 247 229 221 225 239 257 270
351 350 350 349 348 346 346 346 346 345 345 344 343 343 342 340 338 336 337 339 338 336 335 334 334 334 334 334 333 333 334 334 336 337 338 337 338 338 338 338 339 339 339 338 338 338 337 336 331 326 319 313 314 317 317 318 321 323 323 321 320 320 319 318 316 315 313 309 304 300 296 292 289 285 279 272 266 259 244 226 218 220 230 244 260 279
350 350 350 350 349 348 347 347 347 346 345 344 342 343 343 341 339 337 338 339 338 337 335 334 335 335 335 334 334 334 335 335 336 337 338 337 337 338 338 338 339 339 339 339 339 338 338 336 332 326 317 310 312 316 316 318 322 323 323 322 322 322 321 320 319 318 316 312 307 302 297 291 285 279 270 263 256 240 221 214 215 222 235 249 266 289
350 350 350 350 350 349 347 347 348 348 346 344 343 343 343 342 341 340 339 339 338 337 336 335 335 336 335 335 334 335 335 336 336 336 337 337 337 338 338 338 338 339 339 339 339 338 338 338 333 326 316 310 312 316 316 318 322 324 323 323 323 324 324 323 324 323 320 316 311 306 300 290 279 269 262 256 242 218 209 210 215 226 239 255 279 305
350 350 351 350 350 350 348 348 349 349 348 346 344 343 342 341 341 341 341 340 338 337 337 336 336 336 336 335 335 335 335 336 336 336 336 337 338 338 338 338 338 338 339 339 339 338 339 339 336 327 315 308 311 315 315 317 323 325 323 323 324 326 327 328 328 327 326 323 320 314 304 290 274 263 259 252 223 203 203 208 217 230 243 254 287 318
350 350 351 351 350 350 349 348 349 350 348 346 344 343 343 342 341 341 341 341 339 337 337 338 338 336 336 336 336 336 336 336 336 336 337 338 338 338 338 338 338 338 339 340 339 339 340 341 338 330 315 307 310 314 315 317 323 325 323 323 325 328 331 332 332 332 333 334 335 334 328 317 295 273 264 243 205 195 200 208 217 231 239 245 277 316
351 350 351 351 350 351 350 349 349 350 348 345 344 344 344 343 343 342 341 340 339 338 338 338 338 337 336 336 336 336 336 336 337 337 338 338 338 338 338 339 338 339 340 340 340 339 340 341 340 332 317 308 311 315 315 316 323 325 323 323 327 331 336 336 334 336 340 343 350 355 352 339 313 284 266 226 195 192 200 209 219 230 235 246 274 300
352 350 351 351 351 351 350 349 350 351 349 346 345 345 344 344 344 343 342 340 340 339 338 338 339 337 336 336 336 337 337 337 337 338 339 339 339 338 339 339 339 339 339 340 340 340 340 342 341 334 319 309 311 315 315 317 322 323 323 324 328 334 339 338 336 339 344 347 354 358 350 332 306 288 261 207 190 191 199 208 219 230 237 268 289 298
352 350 350 351 351 351 350 350 350 351 349 347 346 346 345 345 345 344 343 342 341 340 339 339 338 338 337 337 337 337 338 338 338 339 340 339 339 338 339 340 339 339 339 341 341 341 341 342 341 335 319 307 309 314 316 317 320 322 324 326 328 335 342 341 337 340 343 345 349 347 335 320 305 292 251 199 189 191 197 205 217 226 236 307 315 312
351 350 350 351 351 350 351 350 350 351 350 347 347 347 346 346 346 345 344 343 342 341 341 339 339 339 338 338 338 338 339 339 339 340 340 340 339 339 339 340 339 339 340 341 341 341 341 341 341 336 320 305 308 314 316 318 320 322 325 326 327 336 344 342 338 338 340 341 341 334 324 316 306 289 235 195 189 190 194 202 212 215 217 332 333 328
351 350 350 350 351 350 350 350 350 351 351 348 347 347 347 346 347 347 345 343 342 342 341 341 340 339 339 339 339 340 340 340 340 340 341 341 339 339 339 340 340 339 340 341 341 341 341 341 341 336 321 306 308 314 317 320 321 322 325 326 328 335 343 343 338 335 336 337 335 328 321 313 298 277 222 192 188 190 193 198 204 204 198 335 338 336
351 350 350 350 350 350 350 350 350 350 351 350 349 348 348 347 347 347 346 344 343 343 342 342 341 341 341 341 341 341 341 341 341 341 342 342 340 340 340 341 340 340 340 341 341 341 340 340 340 336 321 307 309 314 318 321 322 322 324 326 328 334 340 340 337 333 332 331 329 324 320 308 289 268 218 191 189 191 193 197 202 203 201 339 343 338
350 351 350 350 350 350 350 350 350 350 351 351 350 349 349 348 348 348 346 345 344 344 343 342 342 342 343 343 343 343 342 342 342 342 343 343 342 341 341 342 341 341 341 341 341 341 339 339 339 336 322 308 309 315 318 320 320 322 324 324 326 331 335 335 335 333 330 326 323 323 320 307 280 258 215 192 190 192 196 202 209 212 224 321 335 338
351 351 351 350 351 350 350 351 350 350 350 351 351 350 349 349 348 348 347 346 345 345 344 343 343 344 344 345 345 345 344 343 343 343 344 344 343 342 342 342 341 341 341 341 341 340 339 339 339 336 323 306 307 313 317 319 320 324 324 323 325 328 330 329 330 331 330 324 321 323 324 313 270 240 211 192 190 193 198 207 216 221 234 273 319 342
Height
5760 5757 5755 5753 5750 5748 5746 5743 5741 5738 5735 5732 5730 5727 5724 5722 5719 5715 5712 5709 5705 5703 5700 5696 5692 5688 5684 5680 5677 5672 5667 5662 5657 5653 5649 5644 5639 5635 5631 5626 5622 5617 5611 5606 5601 5596 5592 5588 5583 5578 5574 5569 5565 5561 5556 5551 5546 5542 5537 5532 5529 5526 5522 5517 5513 5511 5510 5507 5506 5505 5504 5504 5505 5506 5505 5504 5504 5503 5503 5503 5503 5504 5506 5507 5507 5507
5758 5755 5753 5750 5748 5746 5743 5741 5738 5736 5733 5730 5727 5725 5721 5718 5716 5713 5708 5705 5701 5698 5695 5691 5688 5684 5679 5675 5671 5666 5661 5656 5651 5646 5641 5636 5631 5626 5622 5617 5612 5607 5601 5596 5591 5587 5583 5579 5575 5569 5565 5560 5554 5550 5545 5540 5535 5530 5525 5520 5515 5513 5509 5504 5499 5497 5495 5492 5490 5489 5489 5489 5490 5492 5491 5490 5490 5490 5490 5491 5490 5490 5492 5493 5494 5495
5756 5753 5751 5748 5746 5743 5741 5738 5736 5733 5731 5728 5725 5722 5719 5715 5713 5710 5706 5700 5696 5692 5689 5686 5683 5679 5674 5670 5665 5660 5655 5649 5643 5638 5634 5629 5624 5619 5614 5608 5603 5598 5592 5588 5583 5580 5575 5571 5566 5561 5555 5550 5543 5539 5534 5528 5523 5518 5513 5508 5503 5499 5496 5491 5484 5481 5480 5477 5474 5471 5471 5474 5475 5475 5475 5475 5476 5476 5476 5476 5477 5477 5478 5478 5478 5481
5754 5751 5749 5746 5744 5742 5739 5736 5733 5731 5728 5725 5722 5719 5716 5711 5707 5705 5702 5698 5692 5686 5683 5680 5677 5673 5668 5663 5659 5653 5648 5643 5637 5632 5628 5623 5618 5612 5607 5600 5595 5590 5585 5580 5576 5570 5565 5560 5554 5548 5542 5537 5531 5526 5521 5516 5511 5506 5501 5496 5490 5485 5481 5477 5470 5465 5463 5461 5458 5454 5453 5456 5458 5457 5457 5458 5460 5461 5460 5461 5462 5463 5464 5462 5463 5466
5752 5749 5747 5744 5742 5739 5737 5734 5731 5728 5725 5722 5719 5715 5712 5708 5703 5699 5696 5693 5689 5684 5678 5673 5671 5668 5662 5656 5653 5647 5641 5638 5632 5627 5622 5616 5610 5605 5599 5593 5587 5582 5576 5570 5564 5559 5553 5547 5541 5535 5528 5523 5518 5512 5507 5502 5497 5492 5488 5482 5477 5471 5466 5462 5456 5450 5445 5444 5442 5438 5436 5438 5439 5439 5439 5440 5442 5444 5444 5444 5446 5448 5448 5448 5448 5452
5750 5748 5745 5742 5740 5737 5735 5732 5729 5726 5722 5719 5715 5711 5707 5704 5700 5696 5691 5687 5684 5679 5674 5668 5663 5662 5656 5648 5645 5641 5636 5632 5626 5620 5614 5608 5603 5597 5591 5585 5578 5572 5566 5559 5552 5546 5541 5535 5529 5523 5517 5510 5505 5499 5493 5488 5483 5478 5473 5467 5461 5455 5450 5446 5440 5434 5428 5426 5424 5421 5418 5419 5419 5420 5422 5423 5423 5424 5426 5427 5428 5430 5433 5433 5434 5437
5749 5746 5743 5741 5738 5735 5732 5729 5726 5723 5719 5716 5712 5708 5705 5700 5696 5693 5687 5682 5678 5673 5668 5662 5656 5654 5650 5643 5638 5634 5628 5624 5618 5611 5606 5600 5595 5589 5582 5576 5570 5563 5556 5548 5542 5536 5531 5525 5518 5511 5505 5498 5492 5485 5480 5474 5469 5464 5458 5452 5445 5438 5432 5427 5422 5416 5411 5408 5406 5403 5400 5399 5399 5401 5404 5405 5403 5404 5407 5408 5410 5412 5415 5417 5417 5420
5747 5745 5742 5739 5736 5733 5730 5727 5724 5720 5716 5713 5709 5705 5702 5697 5693 5689 5684 5679 5674 5668 5662 5656 5650 5646 5643 5637 5631 5628 5622 5615 5610 5604 5598 5592 5586 5580 5573 5567 5561 5553 5546 5539 5532 5527 5522 5515 5507 5499 5494 5489 5482 5474 5467 5461 5455 5450 5444 5437 5429 5422 5415 5408 5403 5397 5393 5390 5388 5386 5384 5383 5383 5383 5386 5388 5386 5386 5389 5390 5392 5395 5398 5400 5401 5403
5746 5743 5740 5737 5733 5730 5727 5723 5720 5716 5713 5709 5706 5702 5698 5694 5690 5685 5681 5676 5670 5664 5656 5650 5645 5639 5637 5633 5624 5620 5615 5607 5602 5595 5588 5582 5577 5571 5565 5559 5553 5546 5538 5531 5523 5516 5511 5505 5497 5489 5482 5477 5470 5463 5454 5447 5441 5434 5428 5421 5414 5407 5400 5393 5388 5383 5379 5375 5372 5371 5370 5369 5370 5370 5371 5372 5372 5373 5374 5374 5377 5379 5382 5385 5385 5387
5744 5740 5737 5734 5731 5727 5723 5720 5717 5713 5710 5706 5703 5699 5695 5691 5687 5682 5677 5672 5666 5661 5654 5648 5642 5634 5631 5629 5620 5613 5608 5601 5594 5587 5580 5575 5570 5563 5557 5551 5545 5538 5530 5522 5514 5506 5499 5492 5484 5476 5469 5463 5457 5450 5440 5432 5425 5418 5411 5404 5398 5392 5385 5380 5375 5371 5368 5365 5362 5360 5358 5358 5360 5360 5359 5360 5361 5362 5363 5363 5365 5366 5368 5371 5372 5373
5741 5738 5734 5731 5728 5725 5721 5717 5713 5709 5706 5703 5698 5695 5692 5687 5683 5678 5673 5668 5662 5658 5653 5647 5642 5632 5624 5621 5615 5609 5603 5596 5591 5584 5578 5572 5565 5557 5549 5542 5535 5526 5518 5510 5503 5496 5489 5480 5472 5464 5457 5450 5443 5437 5428 5419 5411 5403 5396 5388 5382 5378 5373 5368 5365 5362 5359 5357 5354 5352 5351 5350 5351 5351 5351 5352 5353 5354 5354 5355 5356 5356 5358 5360 5361 5361
5740 5736 5732 5729 5726 5722 5718 5714 5710 5706 5701 5697 5693 5689 5686 5683 5679 5674 5670 5665 5658 5654 5650 5645 5639 5632 5623 5616 5611 5607 5601 5594 5588 5580 5574 5566 5559 5550 5541 5532 5524 5515 5507 5500 5493 5486 5478 5470 5461 5452 5444 5437 5430 5423 5414 5405 5397 5390 5383 5376 5370 5367 5362 5359 5357 5354 5352 5350 5348 5346 5344 5343 5343 5344 5344 5345 5346 5346 5347 5348 5348 5349 5350 5351 5352 5352
5737 5734 5730 5727 5723 5719 5715 5711 5707 5702 5697 5692 5688 5683 5679 5675 5672 5669 5664 5660 5656 5651 5646 5640 5633 5628 5623 5615 5608 5602 5596 5590 5583 5574 5566 5557 5549 5541 5533 5524 5516 5507 5499 5492 5484 5476 5467 5458 5448 5439 5431 5424 5416 5409 5400 5392 5384 5378 5372 5365 5360 5357 5354 5351 5349 5347 5345 5343 5341 5339 5338 5337 5337 5337 5337 5337 5338 5338 5339 5340 5341 5341 5342 5343 5344 5344
5734 5732 5728 5724 5720 5716 5711 5707 5703 5698 5693 5687 5682 5678 5672 5666 5662 5659 5655 5651 5649 5646 5642 5635 5625 5619 5616 5611 5603 5596 5589 5581 5574 5565 5557 5550 5542 5534 5526 5518 5510 5501 5492 5484 5476 5467 5458 5448 5437 5427 5419 5411 5403 5395 5387 5379 5372 5366 5361 5356 5352 5350 5347 5344 5342 5339 5338 5336 5334 5333 5332 5331 5330 5330 5330 5330 5330 5331 5331 5332 5333 5334 5335 5335 5336 5337
5731 5728 5724 5720 5716 5712 5708 5703 5698 5694 5688 5683 5678 5673 5667 5662 5656 5651 5647 5641 5636 5634 5633 5628 5619 5610 5606 5602 5594 5588 5583 5575 5567 5560 5552 5544 5537 5529 5520 5512 5503 5494 5485 5476 5467 5458 5449 5439 5430 5419 5409 5401 5393 5384 5375 5368 5361 5356 5352 5348 5345 5342 5340 5338 5335 5333 5331 5330 5328 5327 5326 5325 5324 5323 5323 5323 5324 5324 5324 5325 5326 5326 5327 5328 5329 5330
5729 5725 5721 5717 5712 5709 5704 5700 5695 5691 5685 5680 5675 5670 5664 5659 5654 5649 5644 5636 5628 5624 5622 5620 5615 5608 5603 5597 5587 5579 5575 5569 5562 5555 5546 5536 5529 5521 5512 5503 5493 5483 5475 5466 5456 5447 5437 5428 5419 5409 5399 5390 5382 5375 5366 5358 5352 5347 5344 5341 5339 5336 5333 5331 5328 5326 5325 5324 5322 5321 5320 5319 5318 5317 5317 5317 5318 5318 5318 5318 5319 5320 5321 5321 5322 5323
5727 5723 5719 5715 5710 5706 5701 5696 5692 5687 5683 5677 5672 5667 5661 5656 5649 5643 5639 5634 5626 5619 5616 5614 5608 5602 5598 5590 5580 5571 5563 5558 5553 5545 5537 5528 5519 5512 5503 5494 5484 5474 5464 5455 5444 5434 5425 5415 5405 5397 5388 5379 5371 5365 5358 5350 5344 5340 5336 5334 5332 5330 5327 5325 5322 5320 5319 5317 5316 5315 5314 5313 5312 5312 5311 5311 5312 5312 5312 5313 5313 5314 5315 5315 5316 5317
5725 5721 5717 5712 5708 5703 5698 5694 5689 5684 5679 5673 5668 5664 5658 5653 5647 5638 5631 5627 5621 5613 5610 5608 5600 5592 5588 5579 5570 5563 5555 5548 5543 5536 5529 5521 5511 5503 5495 5485 5475 5465 5455 5445 5435 5424 5414 5403 5393 5385 5378 5370 5361 5355 5349 5342 5337 5334 5331 5328 5326 5323 5321 5318 5316 5314 5313 5311 5311 5310 5309 5308 5307 5307 5306 5306 5306 5307 5307 5307 5308 5309 5309 5310 5310 5311
5721 5718 5715 5710 5704 5700 5695 5690 5685 5681 5676 5670 5665 5661 5654 5648 5642 5637 5627 5619 5613 5604 5599 5599 5595 5588 5583 5572 5561 5555 5546 5538 5533 5527 5520 5511 5501 5492 5483 5474 5465 5456 5447 5436 5426 5416 5405 5395 5384 5374 5367 5360 5352 5346 5341 5336 5331 5328 5326 5323 5320 5317 5315 5312 5310 5308 5307 5306 5305 5304 5304 5303 5302 5302 5301 5301 5301 5301 5302 5302 5303 5303 5304 5304 5305 5305
5719 5714 5711 5707 5701 5696 5692 5687 5681 5676 5671 5666 5661 5657 5651 5643 5635 5631 5626 5616 5609 5599 5590 5586 5584 5583 5579 5567 5556 5547 5537 5529 5521 5514 5508 5500 5492 5483 5473 5464 5455 5446 5437 5427 5416 5407 5396 5386 5375 5365 5358 5351 5344 5337 5333 5329 5326 5323 5321 5318 5315 5312 5309 5307 5305 5303 5302 5301 5300 5299 5299 5298 5297 5297 5296 5296 5296 5296 5297 5297 5297 5298 5299 5299 5299 5299
5717 5712 5709 5705 5700 5693 5688 5683 5677 5672 5667 5661 5656 5650 5646 5640 5632 5626 5622 5615 5605 5596 5587 5577 5572 5575 5572 5560 5549 5540 5530 5522 5512 5504 5500 5493 5485 5476 5466 5456 5447 5437 5429 5419 5409 5398 5388 5377 5366 5357 5350 5344 5337 5331 5326 5322 5320 5318 5316 5312 5310 5306 5304 5302 5300 5298 5297 5296 5295 5294 5293 5293 5293 5292 5291 5291 5291 5291 5292 5292 5292 5293 5293 5293 5294 5294
5715 5710 5706 5702 5698 5693 5687 5681 5675 5670 5665 5658 5652 5646 5640 5635 5628 5621 5617 5612 5602 5594 5587 5575 5565 5568 5566 5552 5540 5533 5525 5517 5508 5499 5493 5487 5478 5470 5460 5451 5441 5431 5421 5412 5402 5391 5380 5369 5359 5349 5341 5335 5330 5324 5320 5317 5315 5313 5311 5307 5304 5301 5298 5296 5295 5293 5292 5291 5290 5290 5289 5288 5288 5287 5287 5286 5286 5286 5286 5286 5287 5287 5287 5287 5288 5288
5712 5708 5703 5698 5694 5689 5684 5678 5672 5666 5662 5656 5650 5643 5637 5631 5623 5615 5609 5604 5597 5590 5584 5575 5563 5563 5564 5551 5537 5529 5521 5513 5505 5494 5486 5478 5472 5464 5454 5444 5434 5424 5414 5404 5394 5384 5372 5362 5351 5341 5333 5328 5322 5318 5315 5312 5310 5308 5306 5302 5299 5296 5293 5292 5290 5289 5288 5287 5286 5285 5284 5284 5283 5283 5282 5281 5281 5281 5280 5281 5281 5281 5281 5281 5282 5282
5709 5705 5700 5696 5692 5686 5680 5675 5669 5663 5658 5653 5647 5640 5633 5627 5619 5611 5604 5597 5590 5582 5575 5567 5557 5555 5558 5549 5534 5524 5516 5509 5500 5489 5479 5470 5463 5456 5446 5435 5424 5414 5404 5394 5385 5376 5365 5354 5343 5333 5325 5319 5315 5312 5310 5307 5306 5303 5301 5298 5294 5290 5288 5287 5286 5284 5283 5282 5281 5281 5280 5279 5279 5278 5278 5277 5276 5276 5275 5275 5275 5275 5275 5276 5276 5277
5706 5701 5696 5691 5688 5683 5679 5674 5667 5661 5654 5647 5640 5633 5627 5621 5613 5606 5601 5594 5586 5578 5569 5559 5548 5546 5550 5543 5530 5519 5509 5502 5494 5483 5473 5462 5451 5443 5435 5426 5415 5405 5395 5385 5376 5367 5357 5346 5336 5327 5318 5312 5308 5307 5305 5303 5301 5298 5296 5293 5289 5285 5283 5282 5281 5280 5279 5278 5277 5276 5276 5275 5274 5274 5273 5272 5272 5271 5271 5270 5270 5270 5270 5271 5271 5272
5703 5698 5692 5686 5680 5674 5669 5665 5658 5652 5648 5641 5635 5627 5622 5617 5609 5602 5596 5589 5580 5572 5567 5558 5544 5539 5542 5537 5525 5515 5504 5494 5486 5476 5466 5454 5442 5433 5426 5417 5406 5396 5387 5377 5367 5358 5350 5341 5332 5323 5315 5308 5303 5301 5300 5298 5296 5294 5291 5288 5285 5281 5278 5277 5277 5276 5275 5274 5273 5272 5271 5270 5270 5269 5268 5268 5267 5266 5266 5266 5265 5265 5265 5266 5266 5267
5701 5695 5689 5684 5678 5671 5664 5660 5654 5647 5642 5638 5632 5625 5618 5613 5606 5598 5591 5584 5574 5565 5562 5558 5542 5530 5530 5525 5515 5506 5495 5485 5476 5465 5456 5446 5435 5425 5417 5407 5397 5387 5378 5369 5359 5351 5343 5335 5327 5318 5311 5304 5300 5297 5295 5293 5291 5288 5286 5284 5281 5277 5275 5273 5273 5272 5270 5269 5268 5268 5267 5266 5265 5264 5264 5263 5262 5262 5261 5261 5261 5261 5261 5261 5261 5262
5698 5693 5687 5682 5677 5670 5663 5658 5652 5645 5640 5635 5630 5624 5616 5609 5603 5594 5586 5580 5571 5559 5553 5552 5542 5527 5520 5515 5506 5496 5485 5476 5467 5457 5447 5438 5427 5416 5407 5398 5389 5378 5368 5360 5351 5342 5333 5326 5319 5311 5305 5299 5295 5293 5291 5288 5286 5283 5281 5278 5276 5273 5271 5270 5269 5268 5266 5265 5264 5263 5262 5261 5261 5260 5260 5259 5258 5258 5257 5256 5256 5256 5256 5256 5257 5257
5696 5691 5685 5679 5675 5668 5661 5655 5650 5644 5639 5634 5627 5620 5612 5605 5598 5592 5584 5576 5567 5555 5545 5540 5534 5523 5513 5506 5499 5491 5480 5470 5461 5451 5441 5431 5420 5409 5399 5390 5380 5369 5358 5349 5341 5334 5325 5317 5310 5304 5298 5293 5290 5288 5286 5283 5281 5279 5276 5274 5271 5269 5267 5266 5265 5264 5262 5261 5259 5258 5257 5257 5256 5255 5255 5254 5254 5253 5252 5252 5251 5251 5251 5252 5252 5252
5693 5688 5681 5676 5673 5667 5659 5653 5648 5641 5636 5630 5623 5616 5609 5601 5593 5585 5580 5572 5561 5549 5539 5530 5524 5518 5510 5501 5494 5487 5477 5466 5456 5445 5435 5425 5414 5403 5394 5383 5373 5361 5350 5340 5332 5325 5319 5312 5305 5298 5293 5288 5285 5283 5280 5278 5275 5273 5271 5269 5267 5265 5263 5262 5261 5259 5258 5257 5255 5254 5253 5252 5251 5250 5250 5249 5249 5248 5248 5247 5247 5247 5247 5247 5247 5247
5689 5684 5678 5672 5669 5665 5657 5650 5644 5636 5629 5624 5619 5612 5605 5597 5589 5579 5572 5566 5556 5545 5537 5527 5518 5511 5505 5496 5488 5480 5470 5460 5450 5439 5429 5420 5410 5398 5387 5376 5365 5354 5343 5332 5323 5317 5311 5306 5300 5294 5288 5284 5281 5278 5276 5273 5271 5268 5266 5264 5262 5261 5259 5257 5256 5255 5253 5252 5251 5250 5249 5248 5247 5246 5245 5244 5244 5243 5243 5242 5242 5242 5242 5242 5242 5242
5686 5680 5675 5667 5663 5660 5653 5645 5640 5634 5627 5623 5616 5609 5600 5593 5585 5575 5566 5559 5548 5535 5527 5521 5512 5503 5495 5487 5480 5473 5465 5455 5446 5434 5423 5412 5402 5389 5377 5366 5355 5344 5334 5325 5315 5308 5302 5298 5293 5288 5283 5279 5276 5274 5272 5269 5266 5264 5261 5259 5258 5256 5255 5253 5251 5250 5248 5247 5246 5245 5244 5243 5242 5241 5240 5240 5239 5239 5238 5238 5238 5237 5237 5238 5238 5238
5682 5676 5670 5663 5657 5654 5648 5640 5634 5627 5621 5616 5609 5601 5593 5586 5579 5571 5563 5558 5547 5532 5521 5514 5506 5498 5489 5481 5474 5467 5460 5451 5440 5427 5414 5402 5391 5380 5368 5356 5346 5337 5328 5319 5311 5303 5296 5290 5286 5282 5278 5275 5272 5270 5267 5265 5262 5260 5257 5255 5253 5252 5250 5249 5247 5245 5244 5242 5241 5241 5240 5239 5238 5237 5236 5236 5235 5235 5234 5234 5234 5234 5233 5234 5234 5234
5679 5672 5666 5659 5652 5648 5643 5637 5631 5623 5614 5608 5602 5595 5587 5580 5574 5565 5558 5551 5543 5533 5523 5513 5504 5495 5486 5477 5468 5459 5451 5443 5433 5421 5408 5395 5384 5373 5362 5352 5342 5333 5324 5316 5308 5301 5293 5286 5281 5277 5273 5270 5268 5265 5263 5261 5259 5256 5254 5252 5249 5247 5246 5244 5243 5241 5239 5238 5236 5236 5235 5234 5234 5233 5232 5231 5231 5231 5230 5230 5230 5230 5230 5230 5231 5231
5676 5669 5663 5656 5648 5642 5636 5629 5623 5616 5609 5603 5598 5591 5583 5575 5567 5559 5553 5548 5537 5525 5517 5509 5500 5491 5480 5469 5460 5451 5442 5435 5427 5416 5404 5392 5381 5370 5359 5349 5338 5328 5319 5310 5302 5296 5290 5283 5277 5272 5269 5266 5263 5261 5258 5256 5254 5253 5251 5248 5246 5244 5242 5240 5238 5237 5235 5234 5232 5231 5230 5230 5229 5229 5228 5227 5227 5226 5226 5226 5226 5227 5228 5228 5229 5229
5672 5666 5659 5653 5645 5638 5631 5624 5615 5608 5602 5598 5592 5585 5576 5568 5559 5548 5544 5543 5533 5518 5507 5500 5491 5481 5469 5459 5452 5443 5435 5428 5422 5412 5401 5390 5379 5368 5355 5344 5333 5322 5313 5305 5296 5289 5283 5277 5272 5267 5264 5261 5259 5256 5254 5252 5250 5249 5247 5245 5242 5241 5238 5236 5234 5232 5231 5229 5228 5227 5226 5225 5225 5224 5224 5223 5223 5223 5223 5223 5224 5225 5225 5226 5226 5227
5669 5662 5655 5648 5641 5633 5626 5621 5615 5607 5599 5591 5583 5576 5567 5560 5552 5539 5530 5527 5522 5510 5498 5488 5479 5471 5462 5453 5445 5437 5428 5421 5415 5406 5394 5382 5371 5360 5349 5339 5328 5318 5309 5302 5295 5286 5279 5272 5267 5263 5260 5257 5255 5253 5250 5248 5246 5245 5243 5241 5239 5237 5234 5232 5230 5228 5226 5225 5223 5222 5221 5221 5220 5220 5219 5219 5219 5219 5219 5220 5221 5222 5223 5224 5224 5224
5665 5657 5650 5642 5636 5628 5620 5614 5608 5601 5593 5585 5576 5569 5561 5553 5547 5537 5525 5518 5512 5502 5492 5482 5474 5467 5458 5447 5437 5427 5417 5408 5401 5392 5380 5369 5359 5349 5340 5332 5324 5315 5306 5297 5291 5284 5277 5270 5264 5259 5256 5254 5252 5250 5247 5245 5243 5241 5239 5237 5235 5233 5231 5228 5226 5224 5222 5220 5219 5217 5216 5216 5216 5216 5215 5215 5215 5216 5217 5218 5219 5220 5221 5222 5222 5222
5662 5655 5648 5641 5633 5625 5617 5608 5600 5592 5585 5579 5571 5564 5556 5548 5540 5532 5523 5516 5509 5498 5488 5480 5471 5462 5451 5439 5428 5417 5405 5394 5386 5379 5369 5358 5349 5340 5330 5323 5317 5311 5303 5295 5286 5280 5273 5267 5261 5256 5252 5250 5248 5247 5245 5243 5240 5238 5236 5234 5231 5229 5227 5224 5222 5220 5218 5216 5214 5212 5211 5211 5211 5211 5211 5211 5212 5213 5214 5216 5217 5218 5219 5220 5220 5220
5659 5652 5645 5638 5630 5622 5614 5607 5599 5590 5581 5573 5568 5562 5555 5547 5538 5527 5516 5510 5504 5495 5484 5473 5464 5454 5444 5432 5421 5411 5400 5386 5375 5368 5361 5352 5344 5335 5325 5317 5310 5303 5296 5290 5283 5277 5270 5264 5258 5253 5249 5247 5245 5243 5241 5239 5237 5235 5232 5230 5228 5226 5223 5221 5218 5216 5213 5211 5208 5207 5206 5206 5206 5207 5207 5208 5209 5210 5212 5214 5215 5216 5217 5218 5218 5219
5655 5648 5641 5634 5627 5620 5611 5603 5596 5589 5581 5571 5563 5555 5548 5542 5536 5527 5515 5504 5495 5487 5478 5468 5459 5449 5439 5427 5416 5406 5397 5386 5374 5365 5357 5347 5339 5331 5322 5313 5306 5299 5291 5285 5278 5273 5267 5261 5255 5249 5246 5243 5241 5240 5238 5236 5234 5231 5229 5227 5225 5222 5220 5217 5214 5212 5209 5206 5204 5203 5202 5202 5203 5203 5204 5205 5207 5208 5210 5212 5214 5215 5216 5216 5217 5217
5651 5645 5638 5629 5622 5614 5606 5598 5592 5586 5578 5569 5559 5551 5544 5537 5530 5523 5514 5503 5491 5481 5473 5463 5453 5442 5432 5423 5412 5401 5392 5383 5373 5362 5353 5342 5333 5325 5317 5308 5301 5295 5288 5281 5275 5269 5263 5257 5251 5247 5243 5240 5239 5237 5234 5233 5231 5228 5226 5224 5222 5219 5217 5214 5211 5208 5205 5202 5201 5200 5199 5199 5200 5201 5202 5203 5205 5207 5209 5211 5212 5213 5214 5215 5215 5215
5647 5640 5634 5625 5618 5610 5602 5593 5585 5577 5569 5562 5555 5548 5540 5530 5520 5511 5503 5495 5486 5475 5465 5456 5446 5436 5425 5416 5407 5397 5387 5377 5367 5357 5347 5337 5328 5320 5313 5305 5296 5289 5283 5276 5270 5264 5258 5252 5247 5243 5240 5238 5236 5234 5231 5230 5228 5225 5223 5221 5219 5216 5214 5211 5208 5205 5202 5200 5199 5198 5198 5198 5199 5200 5201 5202 5203 5205 5208 5209 5211 5212 5212 5213 5213 5213
5645 5637 5631 5623 5615 5608 5600 5592 5585 5578 5570 5562 5554 5545 5537 5528 5518 5506 5496 5488 5480 5469 5459 5450 5441 5431 5420 5409 5400 5391 5381 5370 5360 5350 5340 5331 5323 5315 5308 5300 5292 5284 5278 5272 5265 5259 5254 5248 5243 5240 5237 5235 5233 5231 5229 5226 5225 5223 5220 5218 5216 5214 5211 5208 5205 5203 5201 5199 5198 5197 5197 5197 5198 5199 5200 5201 5202 5204 5206 5208 5209 5210 5211 5211 5211 5211
5645 5636 5629 5622 5615 5607 5599 5591 5585 5579 5570 5561 5552 5544 5535 5527 5519 5509 5498 5487 5476 5464 5453 5443 5435 5425 5415 5404 5394 5384 5374 5363 5353 5344 5335 5325 5316 5309 5302 5294 5286 5279 5273 5267 5261 5255 5249 5244 5239 5236 5234 5232 5230 5228 5226 5224 5222 5221 5218 5216 5214 5212 5209 5206 5203 5201 5200 5199 5198 5197 5197 5197 5198 5198 5199 5200 5201 5203 5205 5207 5208 5209 5209 5210 5210 5209
5644 5635 5627 5620 5614 5607 5600 5590 5582 5576 5569 5560 5552 5542 5532 5523 5515 5506 5495 5483 5472 5461 5449 5438 5429 5420 5409 5398 5387 5377 5367 5357 5346 5338 5330 5321 5312 5303 5296 5290 5283 5275 5268 5262 5256 5250 5245 5240 5236 5233 5230 5229 5227 5225 5223 5221 5220 5218 5216 5214 5212 5209 5207 5204 5202 5200 5199 5198 5197 5197 5197 5197 5197 5197 5198 5199 5200 5202 5204 5206 5207 5208 5208 5209 5208 5208
5641 5633 5625 5618 5610 5603 5597 5588 5579 5571 5563 5554 5546 5539 5531 5521 5512 5501 5489 5478 5468 5457 5446 5435 5425 5415 5404 5393 5382 5371 5361 5351 5341 5332 5325 5316 5307 5299 5292 5284 5277 5270 5263 5257 5250 5245 5240 5236 5232 5229 5227 5226 5224 5223 5221 5219 5217 5215 5213 5211 5209 5207 5205 5203 5201 5199 5198 5198 5197 5196 5196 5196 5196 5196 5196 5198 5200 5202 5203 5205 5206 5206 5207 5208 5207 5207
5637 5629 5621 5614 5607 5598 5592 5586 5579 5572 5564 5552 5542 5534 5525 5516 5507 5498 5487 5475 5464 5454 5445 5434 5423 5411 5400 5389 5377 5365 5355 5346 5337 5328 5321 5312 5302 5294 5287 5280 5272 5265 5258 5252 5246 5241 5236 5232 5228 5225 5223 5222 5221 5220 5218 5216 5215 5213 5211 5209 5207 5205 5203 5201 5200 5198 5197 5197 5196 5196 5195 5195 5194 5194 5195 5197 5199 5201 5202 5204 5205 5206 5206 5207 5206 5206
5635 5627 5618 5610 5603 5595 5588 5581 5574 5568 5563 5554 5542 5531 5521 5511 5502 5493 5482 5471 5460 5449 5439 5429 5418 5407 5396 5384 5372 5361 5351 5342 5333 5325 5317 5309 5299 5290 5282 5275 5268 5261 5254 5248 5242 5237 5232 5228 5224 5222 5220 5219 5218 5216 5215 5213 5212 5210 5209 5207 5205 5203 5201 5200 5199 5197 5196 5195 5195 5194 5194 5193 5193 5193 5194 5195 5197 5199 5201 5202 5204 5205 5205 5205 5205 5205
5633 5625 5616 5606 5597 5588 5580 5571 5562 5553 5548 5544 5535 5526 5517 5507 5497 5487 5477 5466 5454 5442 5430 5419 5410 5401 5392 5381 5369 5357 5346 5337 5328 5320 5312 5304 5294 5285 5277 5269 5262 5256 5250 5244 5239 5234 5229 5225 5221 5218 5216 5215 5214 5213 5212 5211 5209 5208 5206 5205 5203 5201 5199 5198 5197 5196 5195 5194 5194 5193 5193 5192 5192 5192 5193 5194 5196 5198 5200 5201 5203 5204 5204 5204 5204 5204
5629 5621 5612 5603 5593 5584 5576 5569 5561 5551 5542 5536 5529 5521 5513 5503 5494 5484 5472 5459 5446 5435 5423 5412 5401 5391 5383 5374 5364 5352 5341 5330 5321 5312 5305 5299 5290 5281 5273 5265 5258 5251 5245 5240 5235 5230 5226 5222 5218 5215 5213 5212 5212 5210 5209 5208 5207 5205 5204 5202 5201 5199 5198 5196 5195 5194 5194 5193 5193 5192 5192 5191 5191 5191 5192 5193 5195 5197 5199 5200 5201 5202 5203 5203 5203 5202